sat.trackr.live / text

‹ back to catalog

STARLINK-11737 [DTC]

NORAD 64066 · 2025-107C

PAYLOAD ACTIVE UNKNOWN

§ Identity

Operator
Country
US
Launch date
2025-05-21
Launch site
AFETR
Launch vehicle
Mass (kg)
RCS (m²)

Purposes: comms

External: N2YO · Heavens-Above · Gunter

§ Orbital elements

Epoch: 2026-05-24T23:06:08.972640Z

Period
91.67 min
Inclination
43.0004°
Eccentricity
0.0002197
Mean motion
15.70874231 rev/d
Perigee alt
354.9 km
Apogee alt
357.9 km
Semi-major
6,734.5 km
B*
1.3382e-3
RAAN
358.5022°
Arg perigee
272.8145°
Mean anomaly
87.2471°
Rev number
5,929

§ Raw data

STARLINK-11737 [DTC]1 64066U 25107C   26144.96260385  .00175181  00000+0  13382-2 0  99942 64066  43.0004 358.5022 0002197 272.8145  87.2471 15.70874231 59290

JSON: /api/v1/satellites/64066 · /tle

For live sub-satellite position, see the globe view (requires WebGL).

§ Visibility from observer

Set your observer location to see the next 7 days of passes ≥ 10°. The values pass through the URL so the page stays shareable.

No JS? Fill the form by hand. The geolocation button needs JavaScript.